Wind_Speed
3 7 12 17 15 6 1 4 11 2 1 4 10 12 10 15 12 13 10 9 8 5 2 2 2 3 5 7 9 11 14 15 14 15 15 15 15 14 9 5 4 1 2 3
5 13 13 2 8 8 5 9 14 6 3 4 9 14 16 12 14 15 13 12 10 8 6 5 7 8 10 11 13 14 15 16 14 13 13 13 11 11 10 9 7 6 5 4
12 2 7 8 7 10 11 14 12 9 1 5 5 15 18 7 6 6 10 13 13 13 13 13 13 14 14 16 16 17 17 15 14 13 12 11 12 15 14 14 13 12 10 8
8 3 6 8 8 12 14 12 10 8 4 8 2 7 6 7 8 10 13 16 16 17 17 17 16 17 18 19 20 20 21 21 20 18 16 16 14 15 14 12 11 9 8 7
6 9 10 11 9 11 6 5 9 6 9 5 9 6 7 4 10 12 16 19 19 17 18 19 19 20 20 22 22 22 22 21 20 18 16 13 11 10 10 9 8 8 7 7
5 0 5 4 3 7 12 6 5 3 1 8 15 13 7 7 7 7 16 18 20 21 23 22 21 22 22 24 24 23 23 21 18 16 13 9 8 8 8 7 6 5 5 6
4 10 4 5 5 2 6 10 4 4 5 7 1 9 9 7 2 3 16 20 20 21 23 24 24 23 23 24 24 22 19 17 15 13 11 9 8 8 8 7 4 4 5 6
9 7 15 12 14 9 16 12 5 7 6 2 2 7 5 2 4 5 8 21 21 22 25 26 25 25 25 25 23 21 17 14 13 11 10 9 8 8 7 5 2 0 2 4
9 6 2 4 3 10 7 10 1 3 1 2 6 5 6 4 6 6 11 20 24 26 29 28 27 26 26 25 23 19 16 14 12 10 9 8 8 9 7 5 3 3 4 5
6 5 2 3 3 0 5 11 4 4 5 6 5 6 8 8 13 9 13 21 23 26 29 31 30 29 28 25 22 20 17 14 12 11 11 10 10 10 8 6 6 4 5 6
6 4 4 5 12 17 6 7 4 3 4 4 4 5 5 12 13 14 16 20 25 28 32 33 31 30 28 27 25 21 19 17 16 14 14 13 12 11 10 9 7 6 6 6
10 3 6 11 1 3 11 12 12 7 6 4 2 6 2 2 7 12 13 17 22 27 30 32 32 32 30 29 27 25 23 20 18 17 17 16 15 14 12 11 10 8 7 6
12 5 6 4 4 2 8 9 15 11 2 11 7 3 1 1 4 10 12 17 23 26 29 31 33 34 33 32 31 27 24 22 20 20 19 19 18 16 16 15 12 9 7 8
24 9 16 18 8 10 12 15 16 18 10 12 19 8 8 10 10 13 16 18 22 29 33 32 32 34 34 34 31 28 24 23 24 23 23 22 20 19 19 18 15 12 10 10
13 16 18 22 12 9 10 19 21 25 27 15 17 20 15 15 15 20 23 19 23 30 32 34 34 34 33 33 31 28 26 27 27 26 25 24 23 22 22 21 18 15 14 14
5 14 16 16 13 12 9 18 25 26 24 23 15 18 8 21 17 13 17 22 27 32 32 33 32 33 30 28 27 27 29 29 30 29 27 26 26 26 25 24 22 20 19 19
12 11 7 15 9 5 9 23 21 18 17 19 19 17 6 8 14 19 20 27 30 26 28 28 27 25 22 23 23 23 23 27 29 30 28 27 27 27 27 27 26 26 24 23
16 19 8 7 6 11 7 0 19 21 17 16 4 4 11 9 15 14 18 23 23 23 22 21 22 20 19 17 17 17 20 22 24 27 28 27 28 30 31 31 30 30 29 27
1 13 5 5 10 4 2 4 8 13 14 10 18 6 6 7 5 7 17 19 18 18 18 18 17 16 16 17 17 18 18 18 20 23 25 27 28 31 33 34 34 32 30 28
3 5 9 4 7 11 2 4 6 5 5 9 16 7 11 14 7 8 17 16 17 18 17 16 17 18 17 17 17 18 16 15 18 19 21 23 26 29 31 33 33 32 29 27
5 2 12 6 5 5 4 6 10 7 2 7 19 16 21 8 7 5 15 20 19 16 15 16 18 17 15 18 18 17 16 20 19 17 17 19 22 25 27 29 30 29 28 28
9 9 4 3 5 9 8 6 9 4 7 16 17 18 22 18 14 19 20 20 17 14 14 18 20 17 16 21 20 18 17 16 17 18 18 18 21 23 25 26 27 27 27 29
4 3 4 6 2 2 19 3 8 14 17 17 20 22 21 22 24 23 21 17 13 10 12 18 21 17 18 25 25 22 20 18 20 23 24 23 23 26 26 26 27 28 29 31
3 3 2 3 2 2 17 3 12 12 14 20 20 22 22 23 25 24 19 15 13 12 14 20 22 21 23 29 32 29 23 23 25 26 28 26 25 27 28 27 28 29 31 31
2 8 6 2 1 3 11 19 16 17 15 18 16 15 18 22 24 22 20 17 15 15 17 22 27 25 25 26 31 35 32 30 30 29 29 27 27 28 29 29 29 30 31 32
8 6 4 3 14 8 10 24 24 20 23 20 20 19 19 21 24 22 22 21 19 19 21 24 28 30 29 29 30 31 33 32 30 29 29 29 28 28 29 30 30 31 32 32
Wind_Direction
151 206 215 216 218 259 210 235 259 213 123 238 246 264 255 206 221 220 213 196 177 189 180 140 119 118 124 134 131 126 122 124 130 135 139 144 146 140 146 156 143 203 214 239
161 230 234 145 195 218 228 251 259 273 218 235 264 261 264 226 230 232 224 193 177 170 162 143 135 134 138 140 142 131 132 132 142 151 151 157 151 142 131 120 116 107 98 94
211 161 171 172 171 202 227 233 243 261 201 218 270 265 252 224 193 189 184 182 177 174 165 158 153 148 145 144 143 145 141 134 135 138 140 136 131 126 122 118 111 101 91 77
235 164 155 184 210 205 241 223 232 232 244 262 232 281 238 211 203 196 190 187 180 174 165 158 152 143 140 141 135 133 133 135 133 129 128 129 125 122 116 112 103 95 81 67
200 178 189 214 224 186 264 145 203 213 234 265 218 256 248 177 232 207 193 184 177 172 168 161 156 149 144 138 137 137 136 133 130 127 125 131 132 129 121 112 107 93 75 57
273 71 194 205 96 193 136 101 82 84 201 252 233 221 199 214 222 177 186 187 179 174 172 169 164 159 154 147 145 143 141 137 134 136 139 144 132 129 129 122 115 94 73 52
197 220 175 160 116 96 182 165 183 217 209 251 65 214 257 242 176 115 180 182 184 182 177 176 174 169 163 158 156 152 150 148 148 152 150 153 152 154 148 143 113 64 35 14
198 235 191 187 214 181 190 196 206 213 204 222 107 230 242 320 126 137 151 181 182 184 186 185 182 179 175 170 166 165 163 166 165 163 163 167 162 166 168 158 132 33 314 320
195 247 195 196 148 167 180 212 169 110 81 263 208 230 238 183 195 171 164 178 187 189 191 190 189 187 183 182 180 180 180 184 180 183 184 179 183 193 192 187 201 249 276 296
199 235 218 143 140 140 207 145 172 214 218 231 207 239 224 205 207 183 185 192 193 194 195 195 194 192 192 192 193 194 195 199 205 204 202 200 202 204 208 227 240 255 278 294
155 237 140 147 208 187 173 190 205 216 222 239 260 228 214 205 186 190 197 197 196 196 199 199 198 198 199 199 202 205 208 214 216 216 214 209 213 220 226 232 241 250 261 277
196 161 195 207 120 303 234 215 184 200 191 237 307 244 175 131 169 188 188 197 201 203 200 201 203 202 203 207 209 211 216 220 222 222 219 218 220 224 231 232 232 240 257 287
171 198 228 221 214 182 218 204 216 235 57 210 211 225 134 202 239 202 193 200 204 203 202 203 205 208 209 212 214 218 221 227 229 227 225 226 227 228 231 234 239 246 268 297
167 175 208 225 217 161 205 205 202 202 220 218 227 221 196 205 214 204 204 208 205 204 204 204 207 211 215 218 220 223 229 232 233 231 230 230 232 234 233 238 241 249 267 287
188 226 217 235 243 203 208 196 195 208 221 214 233 225 196 195 202 206 211 199 197 203 205 208 211 215 219 223 227 232 238 238 237 235 234 234 235 235 237 241 243 251 265 277
220 228 217 241 229 216 228 211 202 211 219 233 242 246 187 204 202 198 200 198 203 207 207 210 214 220 225 232 235 240 242 241 239 239 239 237 237 241 245 247 250 256 263 272
185 203 183 232 197 162 250 214 198 206 214 213 219 231 136 178 197 205 198 204 209 209 209 213 222 226 224 234 237 239 245 246 243 241 240 239 242 246 250 251 254 260 265 270
194 205 203 227 132 218 260 145 206 209 212 217 249 153 170 189 207 215 212 202 203 218 221 223 218 220 215 219 232 242 249 250 239 237 240 241 245 250 253 256 259 261 265 271
136 185 182 183 210 325 343 203 165 179 228 199 217 169 145 153 163 216 209 213 216 216 216 214 204 209 220 230 235 239 241 238 229 234 240 246 251 256 258 260 260 261 265 271
130 187 205 151 209 220 213 175 165 144 243 196 191 153 152 145 197 222 209 198 197 187 189 199 212 218 222 227 226 226 228 228 235 240 252 257 258 259 259 259 259 261 265 271
147 168 211 183 221 271 204 162 159 161 230 155 183 175 157 188 209 186 171 177 182 192 203 211 216 222 230 223 215 212 231 250 252 247 250 256 259 259 258 257 258 260 265 271
171 168 184 157 210 248 146 108 176 155 126 158 179 186 192 199 183 173 173 180 191 202 212 217 220 223 229 217 215 232 251 258 247 247 254 266 270 266 261 258 259 262 267 273
206 192 176 206 197 48 172 82 173 147 165 182 183 189 192 182 183 185 186 190 202 219 230 227 226 229 236 224 230 244 259 253 254 255 259 264 269 258 258 259 261 264 268 273
239 167 157 166 163 171 185 126 174 182 202 190 181 184 191 196 197 194 193 198 215 226 233 232 225 231 236 235 237 246 254 257 255 259 257 259 266 260 257 258 262 266 270 275
140 143 133 76 356 13 212 211 203 206 199 189 191 201 212 215 206 205 210 216 228 240 235 230 226 234 240 242 246 250 256 262 255 255 253 257 261 260 258 260 263 267 270 273
187 152 166 187 181 170 202 217 220 214 210 204 209 217 223 221 219 223 229 235 244 242 234 230 232 238 246 247 249 252 255 255 251 251 250 255 258 258 258 260 266 269 273 277
Height
1550 1549 1545 1540 1543 1544 1546 1547 1545 1547 1551 1551 1545 1543 1540 1546 1548 1548 1549 1550 1551 1552 1552 1552 1552 1552 1552 1552 1552 1553 1555 1557 1560 1559 1558 1557 1558 1559 1562 1564 1564 1565 1564 1564
1550 1543 1537 1544 1548 1548 1550 1548 1544 1547 1551 1551 1544 1543 1537 1540 1540 1542 1544 1547 1549 1549 1550 1552 1551 1551 1551 1551 1553 1556 1558 1559 1560 1561 1562 1561 1558 1560 1562 1564 1565 1565 1565 1565
1534 1535 1538 1542 1548 1550 1548 1546 1543 1545 1550 1550 1548 1535 1529 1532 1537 1539 1540 1542 1543 1544 1546 1547 1548 1548 1549 1548 1548 1549 1553 1557 1561 1564 1565 1566 1565 1562 1564 1563 1564 1564 1565 1564
1536 1536 1538 1541 1541 1543 1543 1543 1545 1548 1550 1545 1546 1528 1523 1523 1528 1533 1535 1537 1539 1540 1543 1546 1548 1549 1549 1551 1550 1552 1553 1553 1558 1560 1562 1562 1567 1568 1566 1565 1563 1564 1564 1564
1526 1534 1537 1536 1533 1540 1538 1544 1545 1548 1547 1550 1543 1543 1515 1524 1519 1524 1529 1532 1535 1539 1541 1544 1547 1548 1550 1550 1552 1553 1555 1556 1557 1559 1560 1563 1562 1567 1567 1566 1564 1564 1564 1564
1528 1532 1532 1530 1536 1538 1545 1547 1550 1553 1552 1546 1531 1533 1509 1507 1506 1516 1525 1531 1533 1534 1537 1541 1545 1547 1549 1549 1550 1551 1552 1555 1557 1558 1560 1564 1564 1563 1565 1566 1565 1564 1564 1563
1530 1527 1528 1530 1535 1542 1540 1540 1544 1550 1552 1535 1540 1537 1503 1503 1511 1513 1518 1527 1532 1535 1537 1540 1543 1546 1548 1549 1550 1552 1554 1556 1557 1557 1557 1561 1561 1564 1563 1565 1564 1563 1562 1562
1521 1520 1520 1521 1517 1524 1531 1526 1525 1536 1535 1522 1549 1526 1502 1512 1514 1514 1516 1522 1528 1532 1535 1538 1541 1544 1546 1547 1549 1551 1552 1555 1557 1557 1556 1558 1559 1561 1561 1562 1563 1563 1563 1562
1514 1513 1515 1517 1518 1519 1531 1530 1525 1538 1563 1535 1509 1511 1505 1512 1512 1513 1515 1520 1523 1526 1530 1534 1537 1541 1542 1544 1546 1549 1549 1553 1554 1555 1556 1555 1557 1559 1559 1560 1561 1561 1561 1561
1499 1505 1515 1517 1518 1519 1516 1516 1529 1529 1531 1525 1505 1504 1485 1503 1501 1510 1514 1516 1520 1523 1527 1529 1531 1534 1538 1542 1544 1546 1547 1550 1551 1552 1552 1553 1555 1556 1556 1557 1560 1560 1560 1560
1499 1503 1516 1516 1509 1502 1516 1513 1516 1512 1512 1507 1497 1484 1484 1485 1493 1500 1505 1510 1514 1517 1520 1524 1529 1532 1535 1537 1540 1543 1544 1546 1547 1548 1548 1549 1551 1554 1555 1556 1556 1557 1558 1558
1490 1497 1504 1501 1503 1506 1496 1493 1497 1495 1513 1510 1509 1480 1489 1489 1491 1496 1500 1506 1510 1513 1515 1521 1526 1528 1529 1534 1535 1537 1539 1540 1543 1543 1545 1545 1546 1549 1552 1554 1554 1554 1554 1555
1482 1494 1500 1498 1503 1505 1498 1495 1488 1484 1500 1491 1496 1475 1491 1491 1492 1493 1496 1500 1505 1509 1512 1515 1520 1523 1524 1526 1529 1532 1533 1537 1538 1540 1541 1542 1545 1545 1548 1552 1551 1551 1550 1551
1463 1473 1467 1460 1458 1466 1482 1483 1485 1482 1482 1474 1466 1471 1487 1487 1490 1491 1492 1495 1499 1502 1505 1508 1513 1515 1520 1521 1524 1527 1529 1531 1533 1534 1536 1537 1540 1541 1543 1546 1547 1546 1546 1546
1461 1463 1459 1452 1457 1462 1460 1461 1474 1470 1457 1465 1454 1464 1471 1476 1480 1481 1484 1488 1494 1495 1499 1502 1505 1510 1513 1516 1519 1523 1524 1526 1529 1529 1531 1533 1536 1537 1537 1539 1540 1541 1542 1540
1457 1453 1456 1459 1460 1462 1461 1455 1455 1455 1454 1452 1457 1452 1460 1466 1473 1478 1479 1483 1487 1488 1491 1495 1499 1505 1507 1511 1514 1516 1519 1520 1522 1523 1526 1529 1530 1532 1533 1536 1538 1535 1533 1534
1453 1453 1461 1447 1459 1468 1464 1438 1446 1446 1444 1446 1452 1442 1457 1465 1468 1471 1472 1476 1480 1483 1486 1489 1495 1498 1502 1505 1507 1509 1512 1514 1514 1517 1522 1524 1526 1527 1528 1529 1530 1532 1529 1528
1435 1444 1449 1441 1463 1445 1419 1434 1429 1433 1436 1441 1444 1448 1451 1455 1461 1465 1468 1472 1477 1481 1483 1487 1490 1494 1497 1500 1502 1506 1507 1507 1509 1511 1515 1518 1519 1520 1521 1524 1523 1524 1523 1522
1430 1436 1446 1448 1442 1425 1442 1436 1433 1435 1428 1436 1438 1445 1451 1454 1458 1461 1464 1468 1473 1476 1480 1484 1487 1491 1493 1495 1497 1499 1501 1502 1504 1506 1509 1511 1513 1514 1514 1516 1516 1517 1517 1515
1433 1433 1431 1444 1427 1417 1414 1426 1427 1428 1427 1428 1433 1441 1449 1455 1457 1453 1459 1464 1469 1473 1478 1481 1484 1486 1487 1490 1491 1493 1496 1498 1500 1502 1503 1505 1505 1506 1507 1508 1508 1509 1509 1508
1429 1433 1420 1429 1423 1423 1421 1424 1427 1431 1425 1425 1431 1439 1445 1449 1448 1452 1455 1461 1466 1470 1474 1476 1478 1481 1484 1486 1487 1490 1492 1493 1495 1496 1496 1497 1498 1498 1498 1499 1501 1502 1501 1500
1411 1418 1419 1424 1421 1414 1419 1426 1422 1423 1424 1427 1431 1434 1438 1442 1446 1449 1453 1458 1462 1466 1469 1471 1474 1477 1479 1481 1482 1485 1486 1487 1489 1489 1490 1490 1490 1490 1491 1492 1493 1493 1493 1492
1412 1407 1411 1413 1409 1416 1419 1419 1421 1422 1424 1427 1429 1432 1436 1440 1444 1447 1450 1455 1458 1461 1464 1466 1468 1471 1473 1476 1477 1479 1480 1481 1481 1483 1482 1483 1483 1482 1483 1484 1485 1485 1485 1483
1410 1410 1409 1412 1416 1416 1418 1420 1422 1425 1426 1426 1429 1431 1434 1438 1440 1443 1447 1450 1454 1457 1458 1460 1462 1465 1468 1469 1470 1472 1473 1473 1474 1474 1475 1475 1475 1474 1475 1476 1476 1476 1475 1474
1402 1406 1411 1417 1417 1418 1420 1420 1422 1423 1425 1426 1428 1431 1432 1434 1437 1440 1443 1446 1448 1451 1453 1454 1455 1458 1461 1462 1463 1465 1465 1464 1465 1465 1466 1466 1466 1466 1467 1467 1467 1467 1466 1465
1398 1400 1402 1404 1406 1409 1412 1415 1418 1420 1421 1424 1425 1427 1429 1431 1434 1437 1439 1441 1442 1444 1445 1447 1449 1451 1453 1454 1455 1456 1456 1455 1456 1456 1457 1457 1457 1458 1458 1458 1458 1458 1457 1455